| time (UTC) | temp C | wind direction | speed KPH | gust KPH | rain 1hr cm | rain 24hr cm | rain mn cm | humidity % | barometer mb |
| 20260504005924 | 18 | 340 | 0.0 | 9.7 | 0.00 | 0.00 | 0.00 | 21 | 927.2 |
| 20260504005421 | 18 | 318 | 3.2 | 9.7 | 0.00 | 0.00 | 0.00 | 21 | 927.2 |
| 20260504004919 | 18 | 327 | 8.0 | 11.3 | 0.00 | 0.00 | 0.00 | 20 | 927.1 |
| 20260504004416 | 18 | 323 | 1.6 | 3.2 | 0.00 | 0.00 | 0.00 | 20 | 927.2 |
| 20260504003913 | 18 | 306 | 3.2 | 14.5 | 0.00 | 0.00 | 0.00 | 20 | 927.1 |
| 20260504003409 | 18 | 312 | 4.8 | 17.7 | 0.00 | 0.00 | 0.00 | 19 | 927.1 |
| 20260504002906 | 18 | 321 | 4.8 | 22.5 | 0.00 | 0.00 | 0.00 | 20 | 927.2 |
| 20260504002403 | 18 | 350 | 9.7 | 14.5 | 0.00 | 0.00 | 0.00 | 20 | 927.3 |
| 20260504001900 | 19 | 305 | 4.8 | 11.3 | 0.00 | 0.00 | 0.00 | 19 | 927.6 |
| 20260504001358 | 19 | 308 | 8.0 | 16.1 | 0.00 | 0.00 | 0.00 | 19 | 927.7 |
| 20260504000854 | 20 | 322 | 11.3 | 12.9 | 0.00 | 0.00 | 0.00 | 19 | 927.8 |
| 20260504000353 | 20 | 306 | 14.5 | 24.1 | 0.00 | 0.00 | 0.00 | 18 | 927.7 |
| 20260503235849 | 20 | 329 | 12.9 | 24.1 | 0.00 | 0.00 | 0.00 | 18 | 927.6 |
| 20260503235347 | 19 | 319 | 14.5 | 20.9 | 0.00 | 0.00 | 0.00 | 20 | 927.5 |
| 20260503234844 | 19 | 260 | 6.4 | 14.5 | 0.00 | 0.00 | 0.00 | 20 | 927.7 |
| 20260503234341 | 20 | 261 | 4.8 | 17.7 | 0.00 | 0.00 | 0.00 | 19 | 927.7 |
| 20260503233839 | 20 | 353 | 14.5 | 17.7 | 0.00 | 0.00 | 0.00 | 19 | 927.7 |
| 20260503233335 | 20 | 307 | 3.2 | 22.5 | 0.00 | 0.00 | 0.00 | 20 | 927.7 |
| 20260503232831 | 20 | 321 | 8.0 | 17.7 | 0.00 | 0.00 | 0.00 | 20 | 927.5 |
| 20260503232329 | 19 | 270 | 8.0 | 11.3 | 0.00 | 0.00 | 0.00 | 19 | 927.3 |
| 20260503231827 | 20 | 318 | 8.0 | 16.1 | 0.00 | 0.00 | 0.00 | 20 | 927.7 |
| 20260503231323 | 20 | 322 | 12.9 | 20.9 | 0.00 | 0.00 | 0.00 | 19 | 927.1 |
| 20260503230819 | 19 | 314 | 0.0 | 9.7 | 0.00 | 0.00 | 0.00 | 19 | 927.3 |
| 20260503230316 | 19 | 359 | 0.0 | 8.0 | 0.00 | 0.00 | 0.00 | 19 | 927.5 |
| 20260503225814 | 19 | 357 | 1.6 | 9.7 | 0.00 | 0.00 | 0.00 | 19 | 927.6 |
| 20260503225309 | 20 | 356 | 9.7 | 24.1 | 0.00 | 0.00 | 0.00 | 18 | 927.6 |
| 20260503224806 | 20 | 353 | 4.8 | 9.7 | 0.00 | 0.00 | 0.00 | 17 | 927.6 |
| 20260503224304 | 20 | 325 | 14.5 | 27.4 | 0.00 | 0.00 | 0.00 | 17 | 927.6 |
| 20260503223801 | 20 | 272 | 8.0 | 20.9 | 0.00 | 0.00 | 0.00 | 17 | 927.7 |
| 20260503223259 | 20 | 298 | 9.7 | 14.5 | 0.00 | 0.00 | 0.00 | 17 | 927.7 |
| 20260503222755 | 20 | 258 | 8.0 | 12.9 | 0.00 | 0.00 | 0.00 | 17 | 927.7 |
| 20260503222253 | 20 | 262 | 6.4 | 14.5 | 0.00 | 0.00 | 0.00 | 17 | 927.8 |
| 20260503221751 | 20 | 282 | 0.0 | 16.1 | 0.00 | 0.00 | 0.00 | 18 | 927.8 |
| 20260503221249 | 21 | 316 | 0.0 | 8.0 | 0.00 | 0.00 | 0.00 | 17 | 927.8 |
| 20260503220745 | 20 | 2 | 1.6 | 14.5 | 0.00 | 0.00 | 0.00 | 18 | 928.1 |
| 20260503220242 | 20 | 332 | 9.7 | 24.1 | 0.00 | 0.00 | 0.00 | 18 | 928.1 |
| 20260503215738 | 20 | 297 | 12.9 | 16.1 | 0.00 | 0.00 | 0.00 | 17 | 928.1 |
| 20260503215236 | 20 | 338 | 8.0 | 22.5 | 0.00 | 0.00 | 0.00 | 17 | 928.1 |
| 20260503214734 | 20 | 263 | 0.0 | 14.5 | 0.00 | 0.00 | 0.00 | 18 | 928.5 |
| 20260503214230 | 19 | 283 | 9.7 | 12.9 | 0.00 | 0.00 | 0.00 | 17 | 928.1 |
| 20260503213728 | 20 | 304 | 4.8 | 16.1 | 0.00 | 0.00 | 0.00 | 17 | 928.4 |
| 20260503213225 | 20 | 303 | 0.0 | 9.7 | 0.00 | 0.00 | 0.00 | 17 | 928.4 |
| 20260503212722 | 20 | 321 | 9.7 | 22.5 | 0.00 | 0.00 | 0.00 | 17 | 928.6 |
| 20260503212220 | 20 | 59 | 1.6 | 8.0 | 0.00 | 0.00 | 0.00 | 18 | 928.4 |
| 20260503211717 | 20 | 339 | 9.7 | 14.5 | 0.00 | 0.00 | 0.00 | 19 | 928.7 |
| 20260503211213 | 20 | 325 | 8.0 | 16.1 | 0.00 | 0.00 | 0.00 | 17 | 928.8 |
| 20260503210709 | 20 | 231 | 6.4 | 9.7 | 0.00 | 0.00 | 0.00 | 18 | 928.9 |
| 20260503210206 | 20 | 275 | 8.0 | 20.9 | 0.00 | 0.00 | 0.00 | 18 | 928.8 |
| 20260503205701 | 19 | 112 | 4.8 | 14.5 | 0.00 | 0.00 | 0.00 | 18 | 928.7 |
| 20260503205158 | 20 | 182 | 8.0 | 11.3 | 0.00 | 0.00 | 0.00 | 18 | 929.1 |
| 20260503204654 | 20 | 64 | 0.0 | 3.2 | 0.00 | 0.00 | 0.00 | 16 | 928.7 |
| 20260503204152 | 19 | 248 | 6.4 | 8.0 | 0.00 | 0.00 | 0.00 | 17 | 929.1 |
| 20260503203649 | 20 | 243 | 8.0 | 14.5 | 0.00 | 0.00 | 0.00 | 18 | 929.2 |
| 20260503203147 | 19 | 294 | 11.3 | 14.5 | 0.00 | 0.00 | 0.00 | 19 | 928.7 |
| 20260503202644 | 20 | 26 | 14.5 | 24.1 | 0.00 | 0.00 | 0.00 | 18 | 929.1 |
| 20260503202142 | 20 | 203 | 9.7 | 12.9 | 0.00 | 0.00 | 0.00 | 18 | 929.2 |
| 20260503201640 | 20 | 7 | 0.0 | 1.6 | 0.00 | 0.00 | 0.00 | 17 | 929.2 |
| 20260503201137 | 20 | 225 | 1.6 | 8.0 | 0.00 | 0.00 | 0.00 | 16 | 929.4 |
| 20260503200633 | 20 | 57 | 0.0 | 3.2 | 0.00 | 0.00 | 0.00 | 17 | 929.4 |
| 20260503200129 | 20 | 207 | 11.3 | 17.7 | 0.00 | 0.00 | 0.00 | 18 | 929.3 |
| 20260503195627 | 20 | 133 | 0.0 | 1.6 | 0.00 | 0.00 | 0.00 | 19 | 929.4 |
| 20260503195123 | 20 | 98 | 1.6 | 4.8 | 0.00 | 0.00 | 0.00 | 18 | 929.6 |
| 20260503194621 | 20 | 91 | 0.0 | 3.2 | 0.00 | 0.00 | 0.00 | 18 | 929.5 |
| 20260503194116 | 20 | 68 | 0.0 | 3.2 | 0.00 | 0.00 | 0.00 | 18 | 929.5 |
| 20260503193613 | 19 | 29 | 0.0 | 0.0 | 0.00 | 0.00 | 0.00 | 19 | 929.7 |
| 20260503193108 | 18 | 32 | 0.0 | 9.7 | 0.00 | 0.00 | 0.00 | 18 | 929.7 |
| 20260503192604 | 18 | 112 | 6.4 | 9.7 | 0.00 | 0.00 | 0.00 | 21 | 929.9 |
| 20260503192100 | 18 | 101 | 0.0 | 4.8 | 0.00 | 0.00 | 0.00 | 19 | 930.0 |
| 20260503191557 | 18 | 82 | 0.0 | 1.6 | 0.00 | 0.00 | 0.00 | 19 | 929.9 |
| 20260503191054 | 18 | 75 | 0.0 | 0.0 | 0.00 | 0.00 | 0.00 | 18 | 929.9 |
| 20260503190551 | 18 | 245 | 0.0 | 0.0 | 0.00 | 0.00 | 0.00 | 18 | 929.9 |
| 20260503190048 | 17 | 41 | 0.0 | 0.0 | 0.00 | 0.00 | 0.00 | 18 | 930.2 |
| 20260503185544 | 17 | 54 | 0.0 | 0.0 | 0.00 | 0.00 | 0.00 | 18 | 930.3 |
| 20260503185044 | 17 | 34 | 0.0 | 4.8 | 0.00 | 0.00 | 0.00 | 19 | 930.4 |
| 20260503184540 | 17 | 358 | 0.0 | 3.2 | 0.00 | 0.00 | 0.00 | 19 | 930.1 |
| 20260503184037 | 17 | 51 | 3.2 | 4.8 | 0.00 | 0.00 | 0.00 | 19 | 930.3 |
| 20260503183533 | 18 | 81 | 0.0 | 0.0 | 0.00 | 0.00 | 0.00 | 18 | 930.4 |
| 20260503183031 | 18 | 40 | 0.0 | 0.0 | 0.00 | 0.00 | 0.00 | 17 | 930.5 |
| 20260503182529 | 18 | 12 | 0.0 | 11.3 | 0.00 | 0.00 | 0.00 | 17 | 930.7 |
| 20260503182026 | 18 | 268 | 4.8 | 4.8 | 0.00 | 0.00 | 0.00 | 17 | 930.5 |
| 20260503181523 | 18 | 56 | 0.0 | 9.7 | 0.00 | 0.00 | 0.00 | 17 | 930.7 |
| 20260503181019 | 20 | 17 | 9.7 | 12.9 | 0.00 | 0.00 | 0.00 | 17 | 930.7 |
| 20260503180517 | 19 | 47 | 0.0 | 8.0 | 0.00 | 0.00 | 0.00 | 18 | 930.8 |
| 20260503180014 | 18 | 127 | 0.0 | 4.8 | 0.00 | 0.00 | 0.00 | 21 | 930.7 |
| 20260503175512 | 18 | 305 | 11.3 | 12.9 | 0.00 | 0.00 | 0.00 | 18 | 930.8 |
| 20260503175008 | 18 | 91 | 0.0 | 4.8 | 0.00 | 0.00 | 0.00 | 18 | 930.8 |
| 20260503174506 | 18 | 28 | 0.0 | 8.0 | 0.00 | 0.00 | 0.00 | 20 | 931.0 |
| 20260503174001 | 18 | 326 | 12.9 | 14.5 | 0.00 | 0.00 | 0.00 | 20 | 931.0 |
| 20260503173457 | 18 | 4 | 4.8 | 9.7 | 0.00 | 0.00 | 0.00 | 19 | 931.1 |
| 20260503172954 | 18 | 91 | 4.8 | 4.8 | 0.00 | 0.00 | 0.00 | 19 | 931.1 |
| 20260503172451 | 17 | 68 | 3.2 | 11.3 | 0.00 | 0.00 | 0.00 | 19 | 931.3 |
| 20260503171948 | 18 | 88 | 4.8 | 8.0 | 0.00 | 0.00 | 0.00 | 20 | 931.1 |
| 20260503171444 | 19 | 67 | 0.0 | 1.6 | 0.00 | 0.00 | 0.00 | 20 | 931.2 |
| 20260503170942 | 19 | 243 | 0.0 | 9.7 | 0.00 | 0.00 | 0.00 | 18 | 931.2 |
| 20260503170438 | 18 | 33 | 3.2 | 4.8 | 0.00 | 0.00 | 0.00 | 20 | 931.1 |
| 20260503150831 | 12 | 93 | 1.6 | 4.8 | 0.00 | 0.00 | 0.00 | 39 | 932.1 |
| 20260503150327 | 12 | 87 | 0.0 | 3.2 | 0.00 | 0.00 | 0.00 | 41 | 932.1 |
| 20260503140251 | 6 | 120 | 4.8 | 9.7 | 0.00 | 0.00 | 0.00 | 56 | 932.4 |
| 20260503131221 | 2 | 116 | 4.8 | 8.0 | 0.00 | 0.00 | 0.00 | 66 | 932.7 |
| 20260503130718 | 2 | 123 | 6.4 | 9.7 | 0.00 | 0.00 | 0.00 | 68 | 931.8 |
| 20260503130215 | 1 | 129 | 8.0 | 11.3 | 0.00 | 0.00 | 0.00 | 69 | 931.8 |
| 20260503120141 | 1 | 128 | 8.0 | 9.7 | 0.00 | 0.00 | 0.00 | 71 | 931.6 |
| 20260503110609 | 2 | 115 | 4.8 | 8.0 | 0.00 | 0.00 | 0.00 | 69 | 931.9 |
| 20260503110106 | 2 | 122 | 4.8 | 8.0 | 0.00 | 0.00 | 0.00 | 69 | 931.9 |
| 20260503090455 | 2 | 118 | 4.8 | 4.8 | 0.00 | 0.00 | 0.00 | 67 | 932.0 |
| 20260503081422 | 2 | 122 | 8.0 | 11.3 | 0.00 | 0.00 | 0.00 | 66 | 932.1 |
| 20260503080919 | 2 | 121 | 11.3 | 11.3 | 0.00 | 0.00 | 0.00 | 66 | 932.3 |
| 20260503080415 | 2 | 147 | 8.0 | 12.9 | 0.00 | 0.00 | 0.00 | 67 | 932.3 |
| 20260503072852 | 3 | 124 | 8.0 | 11.3 | 0.00 | 0.00 | 0.00 | 65 | 932.4 |
| 20260503072349 | 3 | 125 | 6.4 | 9.7 | 0.00 | 0.00 | 0.00 | 67 | 932.5 |
| 20260503071845 | 3 | 127 | 4.8 | 9.7 | 0.00 | 0.00 | 0.00 | 66 | 932.5 |
| 20260503071343 | 3 | 125 | 6.4 | 9.7 | 0.00 | 0.00 | 0.00 | 66 | 932.5 |
| 20260503070839 | 3 | 129 | 6.4 | 9.7 | 0.00 | 0.00 | 0.00 | 64 | 932.3 |
| 20260503070337 | 3 | 128 | 6.4 | 9.7 | 0.00 | 0.00 | 0.00 | 63 | 932.4 |
| 20260503060302 | 5 | 115 | 3.2 | 4.8 | 0.00 | 0.00 | 0.00 | 58 | 932.7 |
| 20260503054744 | 6 | 121 | 4.8 | 11.3 | 0.00 | 0.00 | 0.00 | 56 | 932.5 |
| 20260503054240 | 6 | 124 | 8.0 | 11.3 | 0.00 | 0.00 | 0.00 | 55 | 932.4 |
| 20260503053738 | 6 | 139 | 8.0 | 9.7 | 0.00 | 0.00 | 0.00 | 55 | 932.7 |
| 20260503053236 | 6 | 131 | 8.0 | 9.7 | 0.00 | 0.00 | 0.00 | 54 | 932.6 |
| 20260503052732 | 6 | 122 | 4.8 | 9.7 | 0.00 | 0.00 | 0.00 | 53 | 932.4 |
| 20260503052229 | 6 | 124 | 4.8 | 11.3 | 0.00 | 0.00 | 0.00 | 52 | 932.6 |
| 20260503051724 | 6 | 133 | 8.0 | 11.3 | 0.00 | 0.00 | 0.00 | 51 | 932.6 |
| 20260503051222 | 6 | 134 | 4.8 | 11.3 | 0.00 | 0.00 | 0.00 | 52 | 932.5 |
| 20260503050718 | 7 | 120 | 9.7 | 12.9 | 0.00 | 0.00 | 0.00 | 51 | 932.6 |
| 20260503050215 | 7 | 122 | 6.4 | 14.5 | 0.00 | 0.00 | 0.00 | 50 | 932.6 |
| 20260503045712 | 7 | 131 | 8.0 | 14.5 | 0.00 | 0.00 | 0.00 | 51 | 932.7 |
| 20260503045210 | 7 | 144 | 8.0 | 9.7 | 0.00 | 0.00 | 0.00 | 52 | 932.6 |
| 20260503044706 | 7 | 113 | 4.8 | 11.3 | 0.00 | 0.00 | 0.00 | 51 | 932.5 |
| 20260503044204 | 7 | 133 | 6.4 | 8.0 | 0.00 | 0.00 | 0.00 | 50 | 932.6 |
| 20260503043700 | 7 | 124 | 6.4 | 9.7 | 0.00 | 0.00 | 0.00 | 49 | 932.5 |
| 20260503043158 | 7 | 128 | 6.4 | 8.0 | 0.00 | 0.00 | 0.00 | 50 | 932.6 |
| 20260503042653 | 8 | 105 | 0.0 | 0.0 | 0.00 | 0.00 | 0.00 | 50 | 932.6 |
| 20260503042150 | 8 | 61 | 0.0 | 0.0 | 0.00 | 0.00 | 0.00 | 50 | 932.4 |
| 20260503041646 | 8 | 58 | 0.0 | 0.0 | 0.00 | 0.00 | 0.00 | 49 | 932.4 |
| 20260503041144 | 8 | 74 | 0.0 | 0.0 | 0.00 | 0.00 | 0.00 | 46 | 932.5 |
| 20260503040641 | 8 | 44 | 0.0 | 0.0 | 0.00 | 0.00 | 0.00 | 46 | 932.4 |
| 20260503040139 | 9 | 66 | 0.0 | 0.0 | 0.00 | 0.00 | 0.00 | 42 | 932.4 |
| 20260503035635 | 10 | 67 | 0.0 | 0.0 | 0.00 | 0.00 | 0.00 | 40 | 932.5 |
| 20260503035133 | 10 | 59 | 0.0 | 0.0 | 0.00 | 0.00 | 0.00 | 41 | 932.3 |
| 20260503034630 | 10 | 63 | 0.0 | 0.0 | 0.00 | 0.00 | 0.00 | 41 | 932.1 |
| 20260503034127 | 10 | 76 | 0.0 | 0.0 | 0.00 | 0.00 | 0.00 | 40 | 932.1 |
| 20260503033624 | 10 | 72 | 0.0 | 0.0 | 0.00 | 0.00 | 0.00 | 40 | 931.9 |
| 20260503033122 | 10 | 76 | 0.0 | 0.0 | 0.00 | 0.00 | 0.00 | 39 | 932.0 |
| 20260503032620 | 10 | 51 | 0.0 | 0.0 | 0.00 | 0.00 | 0.00 | 39 | 932.0 |
| 20260503032118 | 11 | 45 | 0.0 | 0.0 | 0.00 | 0.00 | 0.00 | 39 | 931.9 |
| 20260503031615 | 11 | 15 | 0.0 | 0.0 | 0.00 | 0.00 | 0.00 | 38 | 931.8 |
| 20260503031113 | 11 | 13 | 0.0 | 0.0 | 0.00 | 0.00 | 0.00 | 37 | 931.9 |
| 20260503030609 | 12 | 9 | 0.0 | 0.0 | 0.00 | 0.00 | 0.00 | 37 | 931.7 |
| 20260503030106 | 12 | 2 | 0.0 | 0.0 | 0.00 | 0.00 | 0.00 | 37 | 931.7 |
| 20260503025602 | 12 | 17 | 0.0 | 0.0 | 0.00 | 0.00 | 0.00 | 36 | 931.8 |
| 20260503025100 | 12 | 4 | 0.0 | 0.0 | 0.00 | 0.00 | 0.00 | 34 | 931.9 |
| 20260503024556 | 12 | 1 | 0.0 | 0.0 | 0.00 | 0.00 | 0.00 | 33 | 931.6 |
| 20260503024054 | 12 | 353 | 0.0 | 0.0 | 0.00 | 0.00 | 0.00 | 33 | 931.7 |
| 20260503023550 | 13 | 5 | 0.0 | 3.2 | 0.00 | 0.00 | 0.00 | 33 | 931.5 |
| 20260503023048 | 13 | 342 | 0.0 | 8.0 | 0.00 | 0.00 | 0.00 | 32 | 931.5 |
| 20260503022543 | 13 | 354 | 1.6 | 3.2 | 0.00 | 0.00 | 0.00 | 32 | 931.5 |
| 20260503022038 | 13 | 318 | 3.2 | 8.0 | 0.00 | 0.00 | 0.00 | 31 | 931.6 |
| 20260503021535 | 14 | 343 | 6.4 | 11.3 | 0.00 | 0.00 | 0.00 | 30 | 931.7 |
| 20260503021032 | 14 | 352 | 8.0 | 9.7 | 0.00 | 0.00 | 0.00 | 31 | 931.5 |
| 20260503020529 | 14 | 6 | 0.0 | 3.2 | 0.00 | 0.00 | 0.00 | 32 | 931.5 |
| 20260503020026 | 15 | 6 | 4.8 | 8.0 | 0.00 | 0.00 | 0.00 | 31 | 931.5 |
| 20260503015523 | 15 | 330 | 0.0 | 4.8 | 0.00 | 0.00 | 0.00 | 30 | 931.5 |
| 20260503015020 | 15 | 309 | 0.0 | 4.8 | 0.00 | 0.00 | 0.00 | 29 | 931.5 |
| 20260503014516 | 15 | 309 | 4.8 | 8.0 | 0.00 | 0.00 | 0.00 | 28 | 931.3 |
| 20260503014014 | 16 | 0 | 4.8 | 8.0 | 0.00 | 0.00 | 0.00 | 28 | 931.2 |
| 20260503013511 | 16 | 322 | 1.6 | 8.0 | 0.00 | 0.00 | 0.00 | 28 | 931.1 |
| 20260503013009 | 16 | 347 | 0.0 | 3.2 | 0.00 | 0.00 | 0.00 | 27 | 931.2 |
| 20260503012506 | 16 | 305 | 11.3 | 12.9 | 0.00 | 0.00 | 0.00 | 25 | 931.5 |
| 20260503012002 | 16 | 317 | 12.9 | 14.5 | 0.00 | 0.00 | 0.00 | 25 | 931.3 |
| 20260503011459 | 16 | 334 | 6.4 | 12.9 | 0.00 | 0.00 | 0.00 | 26 | 931.3 |
| 20260503010956 | 17 | 292 | 14.5 | 17.7 | 0.00 | 0.00 | 0.00 | 25 | 931.6 |
| 20260503010452 | 17 | 346 | 4.8 | 16.1 | 0.00 | 0.00 | 0.00 | 24 | 931.6 |
| 20260503005950 | 17 | 324 | 12.9 | 14.5 | 0.00 | 0.00 | 0.00 | 23 | 931.5 |